| time (UTC) | temp F | wind direction | speed MPH | gust MPH | rain 1hr in | rain 24hr in | rain mn in | humidity % | barometer mb |
| 20260508121546 | 63 | 338 | 1.0 | 4.0 | 0.00 | 0.00 | 0.00 | 97 | 1014.0 |
| 20260508120055 | 63 | 325 | 2.0 | 5.0 | 0.00 | 0.00 | 0.00 | 97 | 1013.7 |
| 20260508114542 | 63 | 309 | 1.0 | 6.0 | 0.00 | 0.00 | 0.00 | 97 | 1013.3 |
| 20260508113041 | 63 | 309 | 1.0 | 4.0 | 0.00 | 0.00 | 0.00 | 97 | 1013.2 |
| 20260508111544 | 63 | 158 | 2.0 | 6.0 | 0.00 | 0.00 | 0.00 | 97 | 1013.1 |
| 20260508110048 | 63 | 137 | 0.0 | 4.0 | 0.00 | 0.00 | 0.00 | 96 | 1013.8 |
| 20260508104542 | 63 | 22 | 1.0 | 4.0 | 0.00 | 0.00 | 0.00 | 96 | 1014.0 |
| 20260508103046 | 63 | 51 | 0.0 | 3.0 | 0.00 | 0.00 | 0.00 | 96 | 1014.3 |
| 20260508101541 | 63 | 115 | 1.0 | 3.0 | 0.00 | 0.00 | 0.00 | 95 | 1014.1 |
| 20260508100055 | 63 | 34 | 1.0 | 4.0 | 0.00 | 0.00 | 0.00 | 95 | 1014.0 |
| 20260508094544 | 64 | 26 | 1.0 | 6.0 | 0.00 | 0.00 | 0.00 | 94 | 1014.0 |
| 20260508093043 | 64 | 9 | 2.0 | 5.0 | 0.00 | 0.00 | 0.00 | 94 | 1014.0 |
| 20260508091604 | 64 | 93 | 2.0 | 5.0 | 0.00 | 0.00 | 0.00 | 93 | 1013.9 |
| 20260508090047 | 64 | 67 | 1.0 | 5.0 | 0.00 | 0.00 | 0.00 | 92 | 1013.3 |
| 20260508084538 | 64 | 346 | 2.0 | 8.0 | 0.00 | 0.00 | 0.00 | 92 | 1013.1 |
| 20260508083044 | 64 | 34 | 2.0 | 8.0 | 0.00 | 0.00 | 0.00 | 91 | 1013.3 |
| 20260508081606 | 64 | 146 | 1.0 | 9.0 | 0.00 | 0.00 | 0.00 | 91 | 1013.5 |
| 20260508080040 | 64 | 0 | 1.0 | 4.0 | 0.00 | 0.00 | 0.00 | 91 | 1013.6 |
| 20260508074543 | 64 | 64 | 1.0 | 5.0 | 0.00 | 0.00 | 0.00 | 92 | 1014.1 |
| 20260508073044 | 64 | 309 | 1.0 | 4.0 | 0.00 | 0.00 | 0.00 | 92 | 1013.5 |
| 20260508071544 | 64 | 9 | 1.0 | 4.0 | 0.00 | 0.00 | 0.00 | 92 | 1014.0 |
| 20260508070044 | 64 | 338 | 1.0 | 3.0 | 0.00 | 0.00 | 0.00 | 92 | 1014.0 |
| 20260508064542 | 64 | 51 | 1.0 | 5.0 | 0.00 | 0.03 | 0.00 | 92 | 1014.8 |
| 20260508063045 | 64 | 137 | 1.0 | 5.0 | 0.00 | 0.03 | 0.00 | 92 | 1013.5 |
| 20260508061545 | 64 | 149 | 2.0 | 7.0 | 0.00 | 0.03 | 0.00 | 92 | 1013.2 |
| 20260508060057 | 64 | 132 | 1.0 | 4.0 | 0.00 | 0.03 | 0.00 | 92 | 1013.6 |
| 20260508054613 | 64 | 309 | 1.0 | 4.0 | 0.00 | 0.03 | 0.00 | 92 | 1014.3 |
| 20260508053049 | 65 | 126 | 1.0 | 6.0 | 0.00 | 0.03 | 0.00 | 92 | 1015.0 |
| 20260508051542 | 65 | 137 | 1.0 | 5.0 | 0.00 | 0.03 | 0.00 | 92 | 1015.0 |
| 20260508050048 | 65 | 153 | 1.0 | 4.0 | 0.00 | 0.03 | 0.00 | 92 | 1014.9 |
| 20260508044546 | 65 | 323 | 1.0 | 3.0 | 0.00 | 0.03 | 0.03 | 92 | 1015.5 |
| 20260508043051 | 65 | 338 | 0.0 | 4.0 | 0.00 | 0.03 | 0.03 | 92 | 1015.7 |
| 20260508041543 | 66 | 334 | 1.0 | 3.0 | 0.00 | 0.03 | 0.03 | 92 | 1015.7 |
| 20260508040039 | 66 | 178 | 0.0 | 2.0 | 0.00 | 0.03 | 0.03 | 92 | 1015.6 |
| 20260508034550 | 66 | 137 | 1.0 | 3.0 | 0.00 | 0.03 | 0.03 | 91 | 1015.9 |
| 20260508033045 | 66 | 178 | 1.0 | 5.0 | 0.00 | 0.03 | 0.03 | 91 | 1015.2 |
| 20260508031551 | 66 | 78 | 1.0 | 3.0 | 0.00 | 0.03 | 0.03 | 91 | 1015.4 |
| 20260508030045 | 67 | 51 | 1.0 | 3.0 | 0.00 | 0.03 | 0.03 | 91 | 1015.3 |
| 20260508024544 | 67 | 101 | 1.0 | 4.0 | 0.00 | 0.03 | 0.03 | 91 | 1014.9 |
| 20260508023037 | 67 | 221 | 1.0 | 3.0 | 0.00 | 0.03 | 0.03 | 91 | 1015.2 |
| 20260508021537 | 67 | 9 | 1.0 | 5.0 | 0.00 | 0.03 | 0.03 | 90 | 1015.0 |
| 20260508020053 | 68 | 309 | 1.0 | 3.0 | 0.00 | 0.03 | 0.03 | 89 | 1014.4 |
| 20260508014544 | 68 | 301 | 1.0 | 4.0 | 0.00 | 0.03 | 0.03 | 89 | 1014.0 |
| 20260508013044 | 69 | 291 | 1.0 | 3.0 | 0.00 | 0.03 | 0.03 | 88 | 1014.2 |
| 20260508011541 | 69 | 111 | 1.0 | 5.0 | 0.00 | 0.03 | 0.03 | 88 | 1014.5 |
| 20260508010050 | 70 | 34 | 1.0 | 4.0 | 0.00 | 0.03 | 0.03 | 87 | 1014.2 |
| 20260508004545 | 71 | 319 | 1.0 | 3.0 | 0.00 | 0.03 | 0.03 | 86 | 1014.0 |
| 20260508003043 | 72 | 51 | 0.0 | 3.0 | 0.00 | 0.03 | 0.03 | 86 | 1014.2 |
| 20260508001543 | 73 | 137 | 1.0 | 4.0 | 0.00 | 0.03 | 0.03 | 85 | 1014.0 |
| 20260508000044 | 73 | 9 | 1.0 | 4.0 | 0.00 | 0.03 | 0.03 | 84 | 1014.0 |
| 20260507234544 | 74 | 0 | 1.0 | 5.0 | 0.00 | 0.03 | 0.03 | 84 | 1013.7 |
| 20260507233045 | 75 | 319 | 1.0 | 5.0 | 0.00 | 0.03 | 0.03 | 83 | 1013.8 |
| 20260507231547 | 75 | 41 | 1.0 | 7.0 | 0.00 | 0.03 | 0.03 | 83 | 1014.0 |
| 20260507230047 | 76 | 76 | 1.0 | 8.0 | 0.00 | 0.03 | 0.03 | 82 | 1014.0 |
| 20260507224546 | 76 | 334 | 2.0 | 9.0 | 0.00 | 0.03 | 0.03 | 81 | 1014.0 |
| 20260507223044 | 76 | 42 | 2.0 | 6.0 | 0.00 | 0.03 | 0.03 | 80 | 1013.9 |
| 20260507221538 | 78 | 306 | 4.0 | 11.0 | 0.00 | 0.03 | 0.03 | 78 | 1014.0 |
| 20260507220045 | 78 | 338 | 3.0 | 8.0 | 0.00 | 0.03 | 0.03 | 79 | 1013.7 |
| 20260507214548 | 78 | 9 | 3.0 | 9.0 | 0.00 | 0.03 | 0.03 | 79 | 1013.8 |
| 20260507213047 | 77 | 0 | 2.0 | 10.0 | 0.00 | 0.03 | 0.03 | 79 | 1013.9 |
| 20260507211546 | 77 | 344 | 4.0 | 10.0 | 0.00 | 0.03 | 0.03 | 80 | 1013.8 |
| 20260507210043 | 76 | 26 | 3.0 | 9.0 | 0.00 | 0.03 | 0.03 | 80 | 1014.0 |
| 20260507204541 | 76 | 309 | 2.0 | 8.0 | 0.00 | 0.03 | 0.03 | 81 | 1014.2 |
| 20260507203047 | 75 | 15 | 2.0 | 9.0 | 0.00 | 0.03 | 0.03 | 81 | 1014.6 |
| 20260507201545 | 75 | 21 | 3.0 | 11.0 | 0.00 | 0.03 | 0.03 | 82 | 1014.9 |
| 20260507200049 | 74 | 61 | 2.0 | 8.0 | 0.00 | 0.03 | 0.03 | 83 | 1014.9 |
| 20260507194547 | 73 | 126 | 1.0 | 9.0 | 0.00 | 0.03 | 0.03 | 85 | 1014.9 |
| 20260507193042 | 72 | 44 | 2.0 | 13.0 | 0.00 | 0.03 | 0.03 | 84 | 1014.9 |
| 20260507191541 | 71 | 323 | 5.0 | 13.0 | 0.00 | 0.03 | 0.03 | 83 | 1015.2 |
| 20260507190038 | 71 | 347 | 4.0 | 11.0 | 0.00 | 0.03 | 0.03 | 85 | 1015.4 |
| 20260507184544 | 69 | 294 | 4.0 | 9.0 | 0.00 | 0.03 | 0.03 | 86 | 1015.5 |
| 20260507183047 | 68 | 123 | 3.0 | 15.0 | 0.00 | 0.03 | 0.03 | 87 | 1015.7 |
| 20260507181544 | 68 | 311 | 5.0 | 12.0 | 0.00 | 0.03 | 0.03 | 87 | 1016.0 |
| 20260507180053 | 68 | 24 | 4.0 | 12.0 | 0.00 | 0.03 | 0.03 | 86 | 1015.9 |
| 20260507174541 | 68 | 45 | 4.0 | 13.0 | 0.00 | 0.03 | 0.03 | 88 | 1015.7 |
| 20260507173048 | 67 | 13 | 5.0 | 12.0 | 0.00 | 0.03 | 0.03 | 87 | 1016.1 |
| 20260507171559 | 68 | 291 | 4.0 | 10.0 | 0.00 | 0.03 | 0.03 | 87 | 1016.4 |
| 20260507170043 | 67 | 309 | 4.0 | 13.0 | 0.00 | 0.03 | 0.03 | 88 | 1016.2 |
| 20260507164549 | 68 | 342 | 4.0 | 11.0 | 0.00 | 0.03 | 0.03 | 87 | 1016.0 |
| 20260507163047 | 68 | 317 | 2.0 | 12.0 | 0.00 | 0.03 | 0.03 | 89 | 1015.8 |
| 20260507161546 | 67 | 59 | 4.0 | 11.0 | 0.00 | 0.03 | 0.03 | 89 | 1016.1 |
| 20260507160051 | 66 | 83 | 4.0 | 11.0 | 0.00 | 0.03 | 0.03 | 90 | 1015.9 |
| 20260507154545 | 64 | 146 | 3.0 | 10.0 | 0.00 | 0.03 | 0.03 | 92 | 1016.4 |
| 20260507153045 | 63 | 287 | 3.0 | 10.0 | 0.00 | 0.03 | 0.03 | 93 | 1016.6 |
| 20260507151545 | 62 | 321 | 1.0 | 8.0 | 0.00 | 0.03 | 0.03 | 94 | 1016.4 |
| 20260507150041 | 62 | 105 | 1.0 | 5.0 | 0.00 | 0.03 | 0.03 | 94 | 1016.5 |
| 20260507144537 | 61 | 338 | 2.0 | 8.0 | 0.00 | 0.03 | 0.03 | 94 | 1017.0 |
| 20260507143049 | 61 | 28 | 2.0 | 9.0 | 0.00 | 0.03 | 0.03 | 95 | 1016.7 |
| 20260507141546 | 61 | 309 | 2.0 | 8.0 | 0.00 | 0.03 | 0.03 | 95 | 1016.4 |
| 20260507140055 | 60 | 103 | 3.0 | 8.0 | 0.00 | 0.03 | 0.03 | 95 | 1016.2 |
| 20260507134544 | 60 | 93 | 2.0 | 10.0 | 0.00 | 0.03 | 0.03 | 96 | 1016.0 |
| 20260507133040 | 60 | 34 | 3.0 | 10.0 | 0.00 | 0.03 | 0.03 | 96 | 1015.8 |
| 20260507131547 | 60 | 36 | 2.0 | 6.0 | 0.00 | 0.03 | 0.03 | 97 | 1016.2 |
| 20260507124559 | 59 | 335 | 2.0 | 7.0 | 0.00 | 0.03 | 0.03 | 98 | 1015.8 |
| 20260507123042 | 59 | 310 | 2.0 | 7.0 | 0.00 | 0.03 | 0.03 | 98 | 1015.6 |